GW6473 Weather Reports


time (UTC)temp
C
wind
direction
speed
KPH
gust
KPH
rain 1hr
cm
rain 24hr
cm
rain mn
cm
humidity
%
barometer
mb
20260505184236 13 195 14.5 17.7 0.00 0.00 0.00 40 1014.9
20260505183732 12 187 9.7 14.5 0.00 0.00 0.00 41 1014.9
20260505183230 12 212 9.7 16.1 0.00 0.00 0.00 42 1015.1
20260505182726 13 165 4.8 11.3 0.00 0.00 0.00 40 1015.1
20260505182223 12 213 4.8 4.8 0.00 0.00 0.00 41 1014.7
20260505181719 12 223 8.0 11.3 0.00 0.00 0.00 40 1015.0
20260505181217 12 228 8.0 12.9 0.00 0.00 0.00 39 1014.7
20260505180713 12 248 8.0 17.7 0.00 0.00 0.00 40 1015.0
20260505180210 12 216 4.8 9.7 0.00 0.00 0.00 39 1014.6
20260505175706 13 218 4.8 11.3 0.00 0.00 0.00 38 1015.1
20260505175203 13 136 4.8 9.7 0.00 0.00 0.00 38 1014.7
20260505174659 12 214 8.0 11.3 0.00 0.00 0.00 39 1014.9
20260505174155 11 257 1.6 3.2 0.00 0.00 0.00 40 1015.1
20260505173652 12 116 4.8 11.3 0.00 0.00 0.00 41 1015.5
20260505173149 12 244 8.0 12.9 0.00 0.00 0.00 40 1015.6
20260505172646 13 212 6.4 9.7 0.00 0.00 0.00 38 1015.2
20260505172143 12 252 4.8 8.0 0.00 0.00 0.00 39 1015.2
20260505171643 12 261 4.8 8.0 0.00 0.00 0.00 40 1015.5
20260505171140 12 273 3.2 9.7 0.00 0.00 0.00 40 1015.2
20260505170638 12 271 4.8 9.7 0.00 0.00 0.00 41 1015.4
20260505170134 12 257 0.0 8.0 0.00 0.00 0.00 41 1015.5
20260505165629 12 343 4.8 9.7 0.00 0.00 0.00 40 1015.4
20260505165126 11 247 0.0 1.6 0.00 0.00 0.00 41 1015.5
20260505164621 11 192 8.0 11.3 0.00 0.00 0.00 43 1015.7
20260505164119 11 282 8.0 12.9 0.00 0.00 0.00 42 1015.8
20260505163617 11 264 3.2 4.8 0.00 0.00 0.00 43 1016.0
20260505163114 11 200 6.4 9.7 0.00 0.00 0.00 44 1016.0
20260505162611 11 277 4.8 12.9 0.00 0.00 0.00 45 1015.8
20260505162109 10 193 9.7 12.9 0.00 0.00 0.00 45 1016.0
20260505161606 10 248 6.4 12.9 0.00 0.00 0.00 46 1016.1
20260505161103 10 254 4.8 8.0 0.00 0.00 0.00 46 1016.1
20260505160601 10 228 6.4 12.9 0.00 0.00 0.00 46 1016.3
20260505153038 10 303 4.8 8.0 0.00 0.00 0.00 46 1016.1
20260505152534 11 287 11.3 16.1 0.00 0.00 0.00 43 1016.3
20260505152030 10 284 1.6 9.7 0.00 0.00 0.00 45 1016.0
20260505151530 11 308 9.7 14.5 0.00 0.00 0.00 45 1016.2
20260505151028 11 287 6.4 11.3 0.00 0.00 0.00 46 1016.1
20260505150524 10 268 1.6 9.7 0.00 0.00 0.00 46 1016.1
20260505140449 11 334 6.4 9.7 0.00 0.00 0.00 47 1016.2
20260505124903 10 284 1.6 8.0 0.00 0.00 0.00 48 1016.1
20260505124400 10 289 4.8 11.3 0.00 0.00 0.00 48 1016.5
20260505123856 10 273 6.4 12.9 0.00 0.00 0.00 48 1016.5
20260505123353 9 315 8.0 11.3 0.00 0.00 0.00 47 1016.2
20260505122848 8 269 3.2 4.8 0.00 0.00 0.00 45 1016.3
20260505122346 8 286 3.2 4.8 0.00 0.00 0.00 45 1016.1
20260505121843 8 321 1.6 3.2 0.00 0.00 0.00 45 1016.0
20260505121340 8 269 1.6 1.6 0.00 0.00 0.00 46 1015.8
20260505120836 8 259 0.0 3.2 0.00 0.00 0.00 45 1016.0
20260505120332 8 289 1.6 4.8 0.00 0.00 0.00 45 1015.7
20260505115831 8 255 0.0 1.6 0.00 0.00 0.00 46 1015.6
20260505115328 8 267 0.0 1.6 0.00 0.00 0.00 45 1015.8
20260505114826 8 266 1.6 1.6 0.00 0.00 0.00 44 1015.7
20260505114322 8 268 3.2 3.2 0.00 0.00 0.00 44 1016.0
20260505113819 8 272 3.2 3.2 0.00 0.00 0.00 44 1016.2
20260505113315 8 277 1.6 3.2 0.00 0.00 0.00 44 1016.2
20260505112811 8 288 4.8 8.0 0.00 0.00 0.00 43 1016.2
20260505112309 9 253 3.2 4.8 0.00 0.00 0.00 43 1016.1
20260505111804 9 244 4.8 8.0 0.00 0.00 0.00 42 1016.0
20260505111300 9 263 3.2 4.8 0.00 0.00 0.00 42 1015.7
20260505110755 9 257 1.6 4.8 0.00 0.00 0.00 41 1016.0
20260505110254 9 256 1.6 1.6 0.00 0.00 0.00 42 1015.7
20260505101728 10 284 3.2 3.2 0.00 0.00 0.00 40 1015.7
20260505101223 10 262 0.0 1.6 0.00 0.00 0.00 40 1015.7
20260505100720 10 268 0.0 3.2 0.00 0.00 0.00 39 1016.0
20260505100217 10 242 1.6 4.8 0.00 0.00 0.00 39 1015.7
20260505095712 10 289 3.2 4.8 0.00 0.00 0.00 39 1015.8
20260505095211 10 267 3.2 8.0 0.00 0.00 0.00 39 1015.7
20260505094706 10 253 1.6 4.8 0.00 0.00 0.00 38 1015.5
20260505094202 11 312 8.0 9.7 0.00 0.00 0.00 38 1015.7
20260505093659 11 256 4.8 12.9 0.00 0.00 0.00 38 1015.6
20260505093156 10 329 3.2 14.5 0.00 0.00 0.00 39 1015.8
20260505092653 10 258 4.8 9.7 0.00 0.00 0.00 40 1015.5
20260505092152 10 252 4.8 9.7 0.00 0.00 0.00 40 1015.6
20260505091648 10 255 0.0 4.8 0.00 0.00 0.00 40 1015.7
20260505091146 10 312 1.6 4.8 0.00 0.00 0.00 40 1016.0
20260505090644 10 308 3.2 8.0 0.00 0.00 0.00 40 1015.8
20260505090142 10 314 4.8 4.8 0.00 0.00 0.00 39 1016.0
20260505085639 10 252 1.6 8.0 0.00 0.00 0.00 39 1015.8
20260505085137 10 320 0.0 1.6 0.00 0.00 0.00 38 1016.1
20260505084634 10 265 0.0 1.6 0.00 0.00 0.00 38 1016.2
20260505084133 10 291 1.6 1.6 0.00 0.00 0.00 38 1016.1
20260505083630 10 259 0.0 0.0 0.00 0.00 0.00 39 1016.2
20260505083126 10 310 1.6 1.6 0.00 0.00 0.00 38 1016.3
20260505082622 10 280 0.0 0.0 0.00 0.00 0.00 38 1016.3
20260505082120 11 285 0.0 1.6 0.00 0.00 0.00 37 1016.6
20260505081615 11 280 1.6 1.6 0.00 0.00 0.00 36 1016.8
20260505081113 11 232 1.6 1.6 0.00 0.00 0.00 36 1016.7
20260505080609 11 251 1.6 3.2 0.00 0.00 0.00 36 1016.7
20260505080106 11 257 0.0 0.0 0.00 0.00 0.00 36 1016.6
20260505075602 11 257 1.6 3.2 0.00 0.00 0.00 36 1016.7
20260505075059 11 262 0.0 1.6 0.00 0.00 0.00 35 1016.6
20260505074555 11 268 0.0 1.6 0.00 0.00 0.00 35 1016.7
20260505074053 12 284 1.6 3.2 0.00 0.00 0.00 34 1016.3
20260505073550 12 286 0.0 1.6 0.00 0.00 0.00 34 1016.6
20260505073049 12 324 3.2 4.8 0.00 0.00 0.00 34 1016.3
20260505072549 12 341 4.8 9.7 0.00 0.00 0.00 33 1016.5
20260505072046 12 292 3.2 3.2 0.00 0.00 0.00 33 1016.0
20260505071541 12 270 3.2 4.8 0.00 0.00 0.00 32 1016.1
20260505071040 13 330 6.4 9.7 0.00 0.00 0.00 31 1016.1
20260505070537 13 325 11.3 14.5 0.00 0.00 0.00 31 1016.2
20260505070033 13 352 8.0 12.9 0.00 0.00 0.00 31 1016.5
20260505065529 13 285 8.0 12.9 0.00 0.00 0.00 31 1016.6
20260505065025 13 249 9.7 16.1 0.00 0.00 0.00 31 1016.1
20260505064522 13 307 9.7 17.7 0.00 0.00 0.00 31 1016.0
20260505064021 13 328 6.4 12.9 0.00 0.00 0.00 31 1016.5
20260505063518 13 318 6.4 16.1 0.00 0.00 0.00 32 1016.2
20260505063013 13 331 6.4 8.0 0.00 0.00 0.00 33 1016.3
20260505062511 13 316 3.2 8.0 0.00 0.00 0.00 33 1016.2
20260505062008 13 294 4.8 8.0 0.00 0.00 0.00 33 1016.2
20260505061505 13 294 1.6 3.2 0.00 0.00 0.00 34 1016.2
20260505061003 13 278 1.6 4.8 0.00 0.00 0.00 33 1016.1
20260505060500 13 254 1.6 8.0 0.00 0.00 0.00 33 1016.3
20260505055956 13 267 3.2 4.8 0.00 0.00 0.00 33 1016.3
20260505055452 13 265 3.2 4.8 0.00 0.00 0.00 33 1016.5
20260505054949 13 246 3.2 4.8 0.00 0.00 0.00 32 1016.2
20260505054446 14 277 8.0 11.3 0.00 0.00 0.00 32 1016.1
20260505053944 13 248 4.8 9.7 0.00 0.00 0.00 32 1016.0
20260505053441 13 291 6.4 14.5 0.00 0.00 0.00 32 1016.1
20260505052938 14 274 4.8 8.0 0.00 0.00 0.00 32 1016.1
20260505052435 14 270 8.0 11.3 0.00 0.00 0.00 32 1016.1
20260505051932 14 251 8.0 14.5 0.00 0.00 0.00 32 1016.0
20260505051429 14 210 3.2 4.8 0.00 0.00 0.00 34 1015.8
20260505050927 14 271 1.6 8.0 0.00 0.00 0.00 33 1015.7
20260505050425 14 280 1.6 8.0 0.00 0.00 0.00 33 1015.8
20260505041352 13 267 0.0 0.0 0.00 0.00 0.00 32 1016.1
20260505040850 13 253 0.0 0.0 0.00 0.00 0.00 32 1016.1
20260505040347 14 268 0.0 0.0 0.00 0.00 0.00 31 1016.6
20260505035844 14 279 0.0 4.8 0.00 0.00 0.00 31 1016.5
20260505035339 14 326 3.2 3.2 0.00 0.00 0.00 31 1016.1
20260505034837 14 290 1.6 3.2 0.00 0.00 0.00 31 1016.3
20260505034333 14 346 3.2 4.8 0.00 0.00 0.00 30 1016.2
20260505033831 15 9 3.2 3.2 0.00 0.00 0.00 30 1016.2
20260505033327 15 267 0.0 3.2 0.00 0.00 0.00 30 1016.3
20260505032826 15 264 0.0 8.0 0.00 0.00 0.00 29 1016.1
20260505032322 15 250 3.2 4.8 0.00 0.00 0.00 29 1016.0
20260505031819 15 300 6.4 9.7 0.00 0.00 0.00 28 1016.0
20260505031315 15 303 3.2 4.8 0.00 0.00 0.00 28 1015.8
20260505030813 15 293 4.8 9.7 0.00 0.00 0.00 28 1015.7
20260505030310 15 305 4.8 8.0 0.00 0.00 0.00 27 1015.7
20260505025804 15 23 4.8 9.7 0.00 0.00 0.00 27 1016.0
20260505025304 15 305 6.4 8.0 0.00 0.00 0.00 27 1015.5
20260505024800 16 307 4.8 9.7 0.00 0.00 0.00 26 1015.5
20260505024258 16 324 3.2 9.7 0.00 0.00 0.00 26 1015.6
20260505023755 16 255 3.2 8.0 0.00 0.00 0.00 25 1015.0
20260505023252 16 258 3.2 12.9 0.00 0.00 0.00 25 1015.4
20260505022749 16 320 8.0 9.7 0.00 0.00 0.00 25 1015.2
20260505022246 16 315 11.3 16.1 0.00 0.00 0.00 24 1015.1
20260505021742 16 303 4.8 9.7 0.00 0.00 0.00 24 1015.2
20260505021240 16 296 9.7 16.1 0.00 0.00 0.00 24 1015.1
20260505020735 16 280 1.6 14.5 0.00 0.00 0.00 23 1015.1
20260505020231 16 287 6.4 9.7 0.00 0.00 0.00 23 1015.1
20260505015728 16 287 4.8 11.3 0.00 0.00 0.00 22 1015.1
20260505015225 16 213 8.0 20.9 0.00 0.00 0.00 22 1015.2
20260505014722 17 340 11.3 14.5 0.00 0.00 0.00 22 1015.2
20260505014220 17 270 9.7 20.9 0.00 0.00 0.00 22 1015.0
20260505013716 17 303 8.0 20.9 0.00 0.00 0.00 22 1015.0
20260505013213 17 301 11.3 14.5 0.00 0.00 0.00 21 1014.7
20260505012712 17 298 6.4 11.3 0.00 0.00 0.00 21 1014.7
20260505012208 17 284 4.8 9.7 0.00 0.00 0.00 21 1014.9
20260505011704 17 265 4.8 9.7 0.00 0.00 0.00 21 1015.0
20260505011201 17 285 6.4 12.9 0.00 0.00 0.00 21 1014.9
20260505010657 17 242 8.0 12.9 0.00 0.00 0.00 21 1015.0
20260505010154 17 277 9.7 14.5 0.00 0.00 0.00 21 1014.9
20260505005650 17 273 12.9 20.9 0.00 0.00 0.00 20 1014.9
20260505005147 17 309 11.3 14.5 0.00 0.00 0.00 20 1015.0
20260505004644 17 284 11.3 16.1 0.00 0.00 0.00 20 1014.9
20260505004140 18 285 6.4 16.1 0.00 0.00 0.00 20 1015.0
20260505003638 18 325 8.0 16.1 0.00 0.00 0.00 20 1015.1
20260505003135 18 301 14.5 22.5 0.00 0.00 0.00 19 1015.1
20260505002631 18 262 9.7 17.7 0.00 0.00 0.00 20 1014.9
20260505002129 18 281 9.7 14.5 0.00 0.00 0.00 20 1014.9
20260505001626 18 285 12.9 17.7 0.00 0.00 0.00 20 1014.9
20260505001124 18 278 11.3 14.5 0.00 0.00 0.00 20 1015.0
20260505000621 18 257 9.7 20.9 0.00 0.00 0.00 20 1015.2
20260505000119 18 281 9.7 14.5 0.00 0.00 0.00 20 1015.4
20260504235615 18 312 11.3 17.7 0.00 0.00 0.00 20 1015.4
20260504235111 18 266 8.0 16.1 0.00 0.00 0.00 21 1015.4
20260504234609 18 268 8.0 12.9 0.00 0.00 0.00 21 1015.1
20260504234106 18 260 8.0 14.5 0.00 0.00 0.00 21 1015.2
20260504233601 18 266 8.0 24.1 0.00 0.00 0.00 21 1015.2
20260504233058 18 261 8.0 12.9 0.00 0.00 0.00 21 1015.4
20260504232555 18 314 11.3 20.9 0.00 0.00 0.00 21 1015.2
20260504232053 18 313 9.7 12.9 0.00 0.00 0.00 21 1015.1
20260504231549 19 280 4.8 17.7 0.00 0.00 0.00 21 1015.2
20260504231045 19 277 9.7 12.9 0.00 0.00 0.00 21 1015.2
20260504230541 18 299 9.7 12.9 0.00 0.00 0.00 21 1015.2
20260504230041 19 262 17.7 24.1 0.00 0.00 0.00 21 1015.5
20260504225537 19 314 14.5 20.9 0.00 0.00 0.00 21 1015.6
20260504225034 19 246 8.0 17.7 0.00 0.00 0.00 21 1015.5
20260504224531 18 259 12.9 16.1 0.00 0.00 0.00 21 1015.8
20260504224028 18 224 11.3 20.9 0.00 0.00 0.00 21 1015.6
20260504223525 18 332 11.3 27.4 0.00 0.00 0.00 21 1015.6
20260504223020 18 259 12.9 17.7 0.00 0.00 0.00 21 1015.6
20260504222517 18 339 8.0 16.1 0.00 0.00 0.00 20 1015.7
20260504222015 18 309 11.3 14.5 0.00 0.00 0.00 20 1015.7
20260504221512 18 246 8.0 22.5 0.00 0.00 0.00 20 1015.8
20260504221009 18 261 4.8 11.3 0.00 0.00 0.00 20 1016.1
20260504220505 18 296 11.3 22.5 0.00 0.00 0.00 20 1016.3
20260504220002 18 252 6.4 25.7 0.00 0.00 0.00 20 1016.2
20260504215459 18 295 14.5 20.9 0.00 0.00 0.00 19 1016.3
20260504214956 18 275 20.9 27.4 0.00 0.00 0.00 18 1016.2
20260504214452 18 244 11.3 16.1 0.00 0.00 0.00 17 1016.3
20260504213949 19 221 14.5 24.1 0.00 0.00 0.00 17 1016.1
20260504213444 19 260 6.4 14.5 0.00 0.00 0.00 18 1016.1
20260504212942 19 314 8.0 16.1 0.00 0.00 0.00 17 1016.6
20260504212438 18 304 8.0 16.1 0.00 0.00 0.00 16 1016.6
20260504211936 19 230 14.5 22.5 0.00 0.00 0.00 16 1016.3
20260504211432 19 304 12.9 20.9 0.00 0.00 0.00 16 1016.5
20260504210930 18 210 9.7 12.9 0.00 0.00 0.00 17 1016.7
20260504210426 18 264 14.5 22.5 0.00 0.00 0.00 17 1016.8
20260504205923 19 257 9.7 25.7 0.00 0.00 0.00 17 1017.1
20260504205421 18 286 12.9 20.9 0.00 0.00 0.00 17 1017.0
20260504204919 19 288 12.9 16.1 0.00 0.00 0.00 17 1017.1
20260504204417 20 230 4.8 24.1 0.00 0.00 0.00 18 1017.2
20260504203916 19 238 14.5 17.7 0.00 0.00 0.00 19 1017.2
20260504203413 19 277 11.3 20.9 0.00 0.00 0.00 19 1017.4
20260504202909 18 232 6.4 24.1 0.00 0.00 0.00 20 1017.3
20260504202406 18 257 20.9 27.4 0.00 0.00 0.00 20 1017.0
20260504201902 18 314 9.7 17.7 0.00 0.00 0.00 21 1017.2
20260504201400 18 270 8.0 17.7 0.00 0.00 0.00 21 1017.4
20260504200857 18 229 9.7 20.9 0.00 0.00 0.00 21 1017.4
20260504200354 18 206 9.7 20.9 0.00 0.00 0.00 21 1017.3
20260504195850 20 325 19.3 25.7 0.00 0.00 0.00 21 1017.3
20260504195346 19 256 4.8 16.1 0.00 0.00 0.00 21 1017.2
20260504194843 18 262 12.9 17.7 0.00 0.00 0.00 22 1017.6
20260504194339 18 231 14.5 25.7 0.00 0.00 0.00 22 1017.6
20260504193835 18 218 6.4 16.1 0.00 0.00 0.00 22 1017.4
20260504193332 18 230 16.1 17.7 0.00 0.00 0.00 22 1017.7
20260504192831 18 310 9.7 16.1 0.00 0.00 0.00 23 1017.6
20260504192329 18 254 12.9 25.7 0.00 0.00 0.00 23 1017.7
20260504191827 18 250 8.0 20.9 0.00 0.00 0.00 24 1017.3
20260504191324 18 199 11.3 27.4 0.00 0.00 0.00 24 1017.7
20260504190819 18 175 11.3 20.9 0.00 0.00 0.00 23 1017.6
20260504190316 18 258 9.7 16.1 0.00 0.00 0.00 24 1017.6
20260504185812 18 235 6.4 17.7 0.00 0.00 0.00 24 1017.8
20260504185309 18 326 14.5 29.0 0.00 0.00 0.00 24 1017.9
20260504184805 18 236 4.8 8.0 0.00 0.00 0.00 24 1018.2